Location: Bacea
(45.9500°N, 22.6667°E)
Time: 01:07:50
(UTC+00:00)

Cosmos 2150 Rocket - Pass Details

Date: 16 October 2021
Orbit: 750 x 807 km, 74.0° (Epoch: 02 December)

Event Time Altitude Azimuth Distance (km) Brightness Sun altitude
Rises 16:32:21 0° 192° (SSW) 3,306 7.5 -9.6°
Reaches altitude 10° 16:34:45 10° 190° (S) 2,377 6.7 -10.0°
Maximum altitude 16:40:09 69° 108° (ESE) 854 4.0 -10.9°
Drops below altitude 10° 16:45:30 10° 26° (NNE) 2,368 6.3 -11.9°
Sets 16:47:54 0° 24° (NNE) 3,293 7.0 -12.3°
